www.pogodaiklimat.ru

Погода и климат >> Архив погоды >> Австрия >> Клагенфурт


ПОГОДА в Клагенфурте

  • Прогноз погоды в Клагенфурте
  • Монитор погоды в Клагенфурте

АРХИВ ПОГОДЫ в Клагенфурте

Время (UTC), дата Ветер
(напр.,м/с)
 
Видим.   Явления Облачность Т
(С)
Тd
(С)
f
(%)
Тe
(С)
Тes
(С)
Комфортность P
(гПа)
Po
(гПа)
Тmin
(С)
Tmax
(С)
R
(мм)
R24
(мм)
S
(см)
10 11.07 Ю 1 н/о н/о +19.7 +9.9 53 +22 +22 комфорт 1014.8 963.2
11 11.07 ЮВ 3 н/о н/о +20.6 +8.5 46 +22 +22 комфорт 1014.0 962.5
12 11.07 ЮВ 3 н/о н/о +21.5 +7.4 40 +22 +22 комфорт 1013.3 962.0
13 11.07 Ю 4 н/о н/о +22.7 +7.6 38 +24 +24 комфорт 1012.2 961.2
14 11.07 Ю 3 н/о н/о +22.8 +6.9 36 +24 +24 комфорт 1011.9 960.9
15 11.07 ЮВ 2 н/о н/о +22.7 +6.9 36 +23 +23 комфорт 1011.5 960.5
16 11.07 СВ 1 н/о н/о +22.4 +8.3 40 +24 +24 комфорт 1011.3 960.3
17 11.07 В 1 н/о н/о +21.5 +9.6 47 +23 +23 комфорт 1011.5 960.3
18 11.07 В 1 н/о н/о +21.4 +10.1 48 +23 +23 комфорт 1011.6 960.4 +13.2 +23.1
19 11.07 СВ 1 н/о н/о +19.3 +11.2 59 +21 +21 комфорт 1012.4 960.8
20 11.07 С 1 н/о н/о +18.5 +11.5 64 +20 +20 1013.0 961.3
21 11.07 СЗ 2 н/о в посл. час осадки н/о +18.0 +11.5 66 +19 +19 1013.9 962.0 0.0
22 11.07 штиль 0 н/о ливневой дождь н/о +17.5 +14.1 80 +17 +17 1014.2 962.3 0.2
23 11.07 З 1 н/о в посл. час осадки н/о +17.0 +14.1 83 +18 +18 1014.3 962.3 0.0
00 12.07 СЗ 1 н/о {ливн. осадки} н/о +16.3 +14.5 89 +17 +17 1014.1 962.0 0.2
01 12.07 С 1 н/о н/о +16.1 +14.2 88 +17 +17 1013.7 961.6 0.0
02 12.07 СЗ 1 н/о н/о +15.5 +13.8 90 +16 +16 1013.9 961.6
03 12.07 С 1 н/о н/о +14.9 +13.4 91 +15 +15 1014.0 961.6 0.0
04 12.07 С 1 н/о н/о +14.7 +13.0 90 +15 +15 1014.3 961.9
05 12.07 СЗ 1 н/о н/о +15.1 +12.9 87 +16 +16 1014.5 962.1
06 12.07 штиль 0 н/о н/о +16.7 +13.9 84 +17 +17 1014.2 962.1 +14.5 +21.5 0.2
07 12.07 штиль 0 н/о н/о +17.6 +13.9 79 +18 +18 1014.1 962.2
08 12.07 Ю 1 н/о н/о +20.2 +14.3 69 +24 +24 комфорт 1013.2 961.8
09 12.07 Ю 2 н/о н/о +20.7 +13.3 63 +24 +24 комфорт 1012.8 961.5
10 12.07 ЮВ 1 н/о н/о +21.9 +12.2 54 +24 +24 комфорт 1012.2 961.1
11 12.07 штиль 0 н/о н/о +22.5 +11.9 51 +25 +25 комфорт 1011.8 960.8
12 12.07 Ю 1 н/о н/о +24.0 +11.6 46 +26 +26 жарко 1010.7 960.0
13 12.07 В 1 н/о н/о +25.4 +9.9 38 +26 +26 жарко 1009.7 959.3
14 12.07 Ю 2 н/о н/о +25.9 +9.7 36 +27 +27 жарко 1009.1 958.8
15 12.07 Ю 2 н/о н/о +25.2 +11.0 41 +26 +26 жарко 1008.6 958.2
16 12.07 СЗ 3 н/о осадки н/о +20.6 +14.5 68 +24 +24 комфорт 1009.3 958.2 0.3
17 12.07 СВ 4 н/о в посл. час осадки н/о +20.4 +13.3 64 +23 +23 комфорт 1009.8 958.6 1
18 12.07 ЮВ 4 н/о {ливн. осадки} н/о +16.1 +14.2 88 +15 +15 1012.4 960.3 +16.0 +26.4 7
19 12.07 В 2 н/о осадки н/о +15.4 +13.7 90 +15 +15 1013.0 960.8 0.6
20 12.07 СВ 2 н/о н/о +14.7 +13.1 90 +14 +14 1013.6 961.2
21 12.07 штиль 0 н/о {осадки} н/о +14.3 +13.2 93 +14 +14 1014.0 961.5 0.6
22 12.07 С 1 н/о н/о +14.5 +13.6 94 +15 +15 1013.8 961.4
23 12.07 СВ 1 н/о н/о +14.1 +13.3 95 +14 +14 1013.6 961.1
00 13.07 СЗ 2 н/о {осадки} н/о +14.3 +13.6 96 +14 +14 1013.9 961.4 0.6
01 13.07 ЮВ 4 н/о н/о +14.5 +13.9 96 +13 +13 1012.9 960.5 9
02 13.07 СВ 1 н/о в посл. час осадки н/о +14.3 +13.6 96 +15 +15 1012.8 960.4 0.1
03 13.07 В 1 н/о в посл. час осадки {ливн. осадки} н/о +13.9 +13.3 96 +14 +14 1012.7 960.2 9
04 13.07 СЗ 1 н/о н/о +14.0 +13.4 96 +14 +14 1012.4 960.0
05 13.07 З 1 н/о н/о +14.5 +13.7 95 +15 +15 1012.4 960.0
06 13.07 Ю 1 н/о {ливн. осадки} н/о +14.8 +13.3 91 +15 +15 1012.4 960.1 +13.6 +16.3 10
07 13.07 Ю 1 н/о н/о +15.5 +13.8 90 +16 +16 1012.4 960.2
08 13.07 Ю 1 н/о н/о +16.7 +13.5 81 +18 +18 1012.5 960.5
09 13.07 ЮВ 1 н/о н/о +18.3 +13.5 74 +20 +20 1012.1 960.4
10 13.07 ЮЗ 1 н/о н/о +20.5 +13.2 63 +24 +24 комфорт 1011.5 960.2
11 13.07 СВ 3 н/о н/о +21.3 +12.5 57 +24 +24 комфорт 1011.1 960.0
12 13.07 Ю 2 н/о в посл. час осадки н/о +20.7 +11.0 54 +23 +23 комфорт 1011.5 960.2 3
14 13.07 Ю 2 н/о н/о +21.9 +8.7 43 +23 +23 комфорт 1010.7 959.6 0.0
15 13.07 СВ 3 н/о {осадки} н/о +22.8 +8.3 39 +24 +24 комфорт 1010.5 959.6 0.0
17 13.07 С 3 н/о н/о +21.6 +6.7 38 +22 +22 комфорт 1011.3 960.1
18 13.07 С 3 н/о {осадки} н/о +21.1 +6.4 38 +22 +22 комфорт 1012.1 960.8 +14.7 +23.4 3
19 13.07 С 2 н/о н/о +19.4 +7.9 47 +21 +21 комфорт 1012.8 961.2
20 13.07 З 1 н/о н/о +16.4 +9.4 63 +17 +17 1014.1 961.9
21 13.07 С 1 н/о н/о +16.2 +9.5 64 +17 +17 1014.3 962.1
22 13.07 СЗ 1 н/о н/о +15.4 +10.2 71 +16 +16 1014.6 962.2
23 13.07 СЗ 2 н/о н/о +14.9 +10.0 72 +15 +15 1014.8 962.3
00 14.07 СЗ 1 н/о н/о +14.0 +9.7 75 +14 +14 1014.6 962.0
01 14.07 С 1 н/о н/о +13.1 +9.8 80 +13 +13 1014.6 961.8
02 14.07 С 1 н/о н/о +12.1 +9.5 84 +12 +12 1014.3 961.3
03 14.07 СЗ 1 н/о н/о +11.3 +8.8 85 +11 +11 1014.5 961.4
04 14.07 СЗ 1 н/о н/о +10.8 +8.6 86 +10 +10 1014.8 961.6
05 14.07 СЗ 1 н/о н/о +12.1 +9.1 82 +12 +12 1014.9 961.9
06 14.07 СЗ 1 н/о н/о +13.2 +9.6 79 +13 +13 1014.7 961.9 +10.7 +21.1
07 14.07 СЗ 1 н/о н/о +17.2 +9.3 60 +18 +18 1013.9 961.9
08 14.07 Ю 1 н/о н/о +19.5 +9.8 53 +22 +22 комфорт 1013.5 961.9
09 14.07 Ю 1 н/о н/о +21.7 +9.6 46 +23 +23 комфорт 1012.8 961.6
10 14.07 ЮВ 1 н/о н/о +22.1 +9.1 43 +23 +23 комфорт 1012.5 961.4 0.0
11 14.07 ЮВ 2 н/о н/о +21.6 +9.2 45 +23 +23 комфорт 1012.7 961.5
12 14.07 В 2 н/о в посл. час осадки н/о +21.6 +12.2 55 +24 +24 комфорт 1012.7 961.5 0.4
13 14.07 СВ 3 н/о н/о +21.6 +10.5 49 +23 +23 комфорт 1012.6 961.4
14 14.07 С 4 н/о н/о +19.9 +11.6 59 +21 +21 комфорт 1012.7 961.2
15 14.07 СЗ 2 н/о н/о +20.1 +10.7 55 +22 +22 комфорт 1012.3 960.9 0.0
16 14.07 З 2 н/о н/о +19.8 +12.4 62 +22 +22 комфорт 1012.4 960.9
17 14.07 СЗ 2 н/о н/о +20.1 +13.1 64 +23 +23 комфорт 1012.2 960.8
18 14.07 СЗ 1 н/о н/о +19.8 +12.6 63 +23 +23 комфорт 1012.2 960.8 +12.8 +22.5 0.4
19 14.07 С 2 н/о н/о +18.8 +12.6 67 +20 +20 1012.7 961.1
20 14.07 штиль 0 н/о н/о +18.1 +12.4 69 +18 +18 1013.3 961.5
21 14.07 СВ 1 н/о н/о +16.8 +12.8 77 +18 +18 1013.5 961.5
22 14.07 СЗ 1 н/о н/о +16.4 +11.9 75 +17 +17 1014.1 962.0
23 14.07 С 1 н/о н/о +15.3 +11.6 79 +16 +16 1014.5 962.1
00 15.07 С 1 н/о н/о +14.2 +11.8 85 +15 +15 1014.4 961.9
01 15.07 СЗ 1 н/о н/о +13.9 +11.8 87 +14 +14 1014.4 961.8
02 15.07 СЗ 1 н/о н/о +13.6 +11.5 87 +14 +14 1014.2 961.6
03 15.07 СЗ 2 н/о н/о +13.9 +11.5 85 +13 +13 1014.1 961.5
04 15.07 СЗ 2 н/о н/о +13.8 +11.4 85 +13 +13 1014.6 962.0
05 15.07 С 1 н/о в посл. час осадки н/о +15.2 +10.8 75 +16 +16 1014.4 962.0 0.0
06 15.07 Ю 2 н/о {осадки} н/о +16.6 +11.4 71 +17 +17 1014.0 961.9 +13.4 +19.8 0.0
07 15.07 штиль 0 н/о н/о +18.0 +11.9 68 +18 +18 1013.6 961.8
08 15.07 ЮВ 1 н/о н/о +19.2 +11.2 60 +21 +21 комфорт 1013.2 961.6
09 15.07 ЮВ 1 н/о н/о +20.8 +10.5 52 +24 +24 комфорт 1012.9 961.6
10 15.07 В 1 н/о н/о +21.6 +11.3 52 +24 +24 комфорт 1012.6 961.4
11 15.07 ЮВ 2 н/о н/о +21.8 +9.6 46 +23 +23 комфорт 1012.4 961.2
12 15.07 ЮВ 5 н/о н/о +22.5 +10.1 45 +24 +24 комфорт 1012.0 961.0
13 15.07 В 3 н/о н/о +22.3 +9.5 44 +24 +24 комфорт 1012.2 961.1
14 15.07 ЮВ 4 н/о н/о +23.4 +10.8 45 +26 +26 жарко 1011.9 961.0
15 15.07 В 4 н/о н/о +22.1 +9.1 43 +23 +23 комфорт 1012.1 961.0
16 15.07 В 4 н/о н/о +22.2 +9.1 43 +24 +24 комфорт 1012.0 960.9
17 15.07 ЮВ 3 н/о н/о +21.4 +9.2 46 +23 +23 комфорт 1012.2 961.0
18 15.07 В 2 н/о н/о +21.1 +9.0 46 +22 +22 комфорт 1012.8 961.5 +16.1 +23.5
19 15.07 СВ 2 н/о н/о +19.8 +9.7 52 +22 +22 комфорт 1013.4 961.8
20 15.07 штиль 0 н/о н/о +18.7 +10.6 59 +19 +19 1014.2 962.4
21 15.07 С 1 н/о н/о +17.3 +11.8 70 +18 +18 1014.9 962.9
22 15.07 СЗ 2 н/о н/о +15.9 +11.9 77 +16 +16 1015.5 963.2
23 15.07 СЗ 2 н/о н/о +15.1 +11.7 80 +15 +15 1015.9 963.4
00 16.07 СЗ 2 н/о н/о +14.2 +11.3 83 +14 +14 1016.0 963.4
01 16.07 СЗ 1 н/о н/о +13.4 +10.8 84 +14 +14 1016.3 963.5
02 16.07 СЗ 1 н/о н/о +12.6 +10.7 88 +13 +13 1016.6 963.6
03 16.07 СЗ 2 н/о н/о +11.9 +10.4 91 +11 +11 1016.8 963.7
04 16.07 СЗ 2 н/о н/о +11.2 +9.8 91 +10 +10 1016.8 963.6
05 16.07 СЗ 1 н/о н/о +12.4 +10.1 86 +12 +12 1017.0 964.0
06 16.07 СЗ 1 н/о н/о +15.3 +10.5 73 +16 +16 1016.5 964.0 +11.2 +21.3
07 16.07 СЗ 1 н/о н/о +16.4 +11.7 74 +17 +17 1016.0 963.8
08 16.07 ЮЗ 1 н/о н/о +19.3 +12.5 65 +22 +22 комфорт 1015.2 963.5
09 16.07 Ю 1 н/о н/о +21.4 +10.9 51 +23 +23 комфорт 1014.3 963.0
10 16.07 Ю 3 н/о н/о +23.0 +11.0 47 +25 +25 комфорт 1013.4 962.4
11 16.07 ЮВ 3 н/о н/о +23.7 +9.3 40 +25 +25 комфорт 1013.2 962.3
12 16.07 ЮВ 2 н/о н/о +24.9 +9.6 38 +26 +26 жарко 1012.6 961.9
13 16.07 СВ 2 н/о н/о +25.6 +8.3 33 +26 +26 жарко 1011.9 961.4
14 16.07 ЮВ 2 н/о н/о +26.0 +7.9 32 +26 +26 жарко 1011.7 961.2
15 16.07 В 1 н/о н/о +26.1 +7.3 30 +26 +26 жарко 1011.2 960.8
16 16.07 ЮВ 2 н/о н/о +25.3 +7.8 33 +25 +25 комфорт 1010.8 960.3
17 16.07 В 1 н/о н/о +26.1 +7.8 31 +26 +26 жарко 1010.6 960.2
18 16.07 СВ 1 н/о н/о +24.9 +9.5 38 +26 +26 жарко 1011.0 960.4 +14.9 +26.4
19 16.07 С 1 н/о н/о +21.6 +11.0 51 +23 +23 комфорт 1012.0 960.8
20 16.07 С 1 н/о н/о +19.5 +12.0 62 +22 +22 комфорт 1013.1 961.5
21 16.07 штиль 0 н/о н/о +17.5 +11.7 69 +18 +18 1014.1 962.1
22 16.07 СВ 1 н/о н/о +16.0 +11.5 75 +17 +17 1014.8 962.5
23 16.07 С 1 н/о н/о +15.0 +11.1 77 +16 +16 1015.5 963.0
00 17.07 СЗ 1 н/о н/о +14.1 +10.7 80 +14 +14 1016.0 963.3
01 17.07 СЗ 1 н/о н/о +13.3 +10.1 81 +13 +13 1016.1 963.3
02 17.07 СЗ 2 н/о н/о +12.7 +10.0 84 +12 +12 1016.1 963.2
03 17.07 С 1 н/о н/о +12.1 +9.4 84 +12 +12 1016.3 963.2
04 17.07 С 1 н/о н/о +11.7 +9.0 83 +12 +12 1016.7 963.5
05 17.07 С 1 н/о н/о +12.5 +9.1 80 +13 +13 1016.6 963.6
06 17.07 Ю 1 н/о н/о +15.6 +10.0 69 +16 +16 1015.8 963.4 +11.4 +25.1
07 17.07 штиль 0 н/о н/о +18.4 +10.9 62 +19 +19 1015.0 963.1
08 17.07 ЮВ 1 н/о н/о +20.4 +11.5 57 +23 +23 комфорт 1013.7 962.3
09 17.07 Ю 1 н/о н/о +22.5 +11.6 50 +25 +25 комфорт 1012.6 961.6
10 17.07 Ю 1 н/о н/о +24.0 +10.3 42 +25 +25 комфорт 1011.8 961.0
11 17.07 Ю 1 н/о н/о +25.4 +11.0 40 +26 +26 жарко 1010.8 960.3
12 17.07 ЮВ 3 н/о н/о +26.9 +11.4 38 +28 +28 жарко 1010.0 959.8
13 17.07 ЮВ 3 н/о н/о +27.7 +12.3 38 +29 +29 жарко 1009.1 959.1
14 17.07 ЮВ 3 н/о н/о +28.4 +11.2 34 +29 +29 жарко 1008.6 958.7
15 17.07 Ю 2 н/о н/о +28.7 +11.9 35 +30 +30 жарко 1007.8 958.0
16 17.07 В 2 н/о н/о +28.6 +10.6 33 +29 +29 жарко 1007.3 957.5
17 17.07 Ю 2 н/о н/о +26.4 +11.4 39 +28 +28 жарко 1007.6 957.5
18 17.07 СЗ 5 н/о н/о +22.3 +14.0 59 +25 +25 комфорт 1009.9 959.0 +15.4 +29.0 0.0
19 17.07 СВ 1
{15}
н/о ливневой дождь н/о +17.5 +14.2 81 +19 +19 1012.7 960.9 0.6
20 17.07 СЗ 1 н/о осадки н/о +16.5 +14.8 90 +17 +17 1014.8 962.7 3
21 17.07 Ю 1
{15}
н/о {ливн. осадки} н/о +16.0 +14.9 93 +17 +17 1015.3 963.1 10
22 17.07 СЗ 2 н/о осадки н/о +15.9 +15.0 94 +16 +16 1015.4 963.2 3
23 17.07 СЗ 1 н/о осадки н/о +15.9 +14.9 94 +17 +17 1015.5 963.3 0.9
00 18.07 С 1
{15}
н/о {ливн. осадки} н/о +16.1 +15.1 94 +17 +17 1015.1 962.9 14
01 18.07 С 1 н/о н/о +15.7 +14.8 94 +16 +16 1014.0 961.8
02 18.07 З 2 н/о осадки н/о +15.3 +14.6 96 +15 +15 1014.1 961.8 0.1
03 18.07 СЗ 1 н/о {осадки} н/о +15.3 +14.4 94 +16 +16 1014.1 961.8 0.1
04 18.07 СЗ 1 н/о н/о +15.5 +14.6 94 +16 +16 1014.3 962.0
05 18.07 СЗ 1 н/о н/о +16.0 +14.7 92 +17 +17 1014.1 961.9
06 18.07 СЗ 1
{15}
н/о {осадки} н/о +16.6 +15.0 90 +17 +17 1014.1 962.1 +15.2 +23.0 14
07 18.07 СЗ 1 н/о н/о +17.1 +14.8 86 +18 +18 1014.3 962.3
08 18.07 штиль 0 н/о н/о +18.3 +14.5 79 +19 +19 1014.0 962.2

 

Местоположение метеостанции Клагенфурт (Австрия): широта 46.63 долгота 14.32 высота над уровнем моря 450 м.

В архиве по умолчанию представлена погода в Клагенфурте за последнюю неделю. Архивные данные за месяц целиком и за предыдущие месяцы, начиная с января 2011 года, Вы можете получить, выбрав интересующий диапазон дат из раскрывающегося списка и нажав кнопку "Ввод!".


*Определитесь, кто Вы:
робот инопланетянин человек

Внимание! Время в таблицах - всемирное. Для получения местного времени необходимо прибавить поправку, которая равна 1 ч.

Смотрите также архив погоды в соседних городах и на ближайших метеорологических станциях:

Погода в Клагенфурте (Австрия) (2 км)
Погода в Пёрчах-ам-Вёртерзе (Австрия) (11 км)
Погода в Фельдкирхене (Австрия) (20 км)
Погода в Вайтенсфельд-им-Гурктале (Австрия) (26 км)
Погода Айзенкаппель-Феллах (Австрия) (27 км)
Погода в Лесце (Словения) (31 км)
Погода в Филлахе (Австрия) (34 км)
Погода в Файстриц-об-Блайбурге (Австрия) (35 км)
Погода в Арриахе (Австрия) (38 км)
Погода в Санкт-Андре (Австрия) (42 км)

Пояснения к столбцам:

Ветер - указаны скорость ветра в м/с - средняя за 10 мин, порывы в срок и между сроками (в фигурных скобках) и направление, откуда дует ветер: С - северный, СВ - северо-восточный, В - восточный, ЮВ - юго-восточный, Ю - южный, ЮЗ - юго-западный, З - западный, СЗ - северо-западный.
Видимость - горизонтальная дальность видимости в метрах или километрах. При видимости от 1 до 10 км при отсутствии осадков обычно наблюдается дымка, при ухудшении видимости до 1 км и менее - туман. В сухую погоду видимость может ухудшаться дымом, пылью или мглою.
Явления - указаны атмосферные явления, наблюдавшиеся в срок или в последний час перед сроком; фигурными скобками обозначены явления, наблюдавшиеся между сроками (за 1-3 часа до срока); квадратными скобками обозначены град или гололедные отложения с указанием их диаметра в мм.
Облачность - указаны через наклонную черту общая и нижняя облачность в баллах и высота нижней границы облаков в метрах; квадратными скобками обозначены формы облаков: Ci - перистые, Cs - перисто-слоистые, Cc - перисто-кучевые, Ac - высококучевые, As - высокослоистые, Sc - слоисто-кучевые, Ns - слоисто-дождевые, Cu - кучевые, Cb - кучево-дождевые. Подробнее классификацию облаков см. в Атласе облаков (PDF).
T - Температура воздуха - температура, измеренная на высоте 2 м над землей.
Td - Температура точки росы - температура, при понижении до которой содержащийся в воздухе водяной пар достигнет насыщения.
f - Относительная влажность воздуха - влажноcть воздуха, измеренная на высоте 2 м над землей.
Te - Эффективная температура - температура, которую ощущает одетый по сезону человек в тени. Характеристика душности погоды. При расчете учитывается влияние влажности воздуха и скорости ветра на теплоощущения человека.
Tes - Эффективная температура на солнце - температура, которую ощущает человек, с поправкой на солнечный нагрев. Характеристика знойности погоды. Зависит от высоты солнца над горизонтом, облачности и скорости ветра. Ночью, в пасмурную погоду, а также при ветре 12 м/с и более поправка равна нулю.
P - Атмосферное давление - приведенное к уровню моря атмосферное давление.
Po - Атмосферное давление - измеренное на уровне метеостанции атмосферное давление.
Tmin - Минимальная температура - минимум температуры воздуха на высоте 2 м над землей.
Tmax - Максимальная температура - максимум температуры воздуха на высоте 2 м над землей.
R - Количество осадков - Количество выпавших осадков за период времени, мм. При наведении курсора мыши на число - период времени, за который выпало указанное количество осадков.
R24 - Количество осадков - Количество выпавших осадков за 24 часа, мм.
S - Снежный покров - Высота снежного покрова, см. При наведении курсора мыши на число - состояние снежного покрова и степень покрытия местности в баллах.